Regional Weather Roundup
Issued by NWS

Home | Current Version | Previous Version | Graphics & Text | Print | Product List | Glossary On
Versions: 1 2 3 4 5 6 7 8 9 10 11 12 13 14 15 16 17 18 19 20 21 22 23 24 25 26 27 28 29 30 31 32 33 34 35 36 37 38 39 40 41 42 43 44 45 46 47 48 49 50
000
ASUS43 KMKX 211200
RWRWI

WISCONSIN REGIONAL WEATHER ROUNDUP
NATIONAL WEATHER SERVICE MILWAUKEE/SULLIVAN WI
700 AM CDT THU SEP 21 2017

NOTE: "FAIR" INDICATES FEW OR NO CLOUDS BELOW 12,000 FEET WITH NO
SIGNIFICANT WEATHER AND/OR OBSTRUCTIONS TO VISIBILITY.

WIZ001-002-006>008-014>016-023>028-211300-
NORTHWEST WISCONSIN

CITY           SKY/WX    TMP DP  RH WIND       PRES   REMARKS
SUPERIOR ARPT    N/A     37  37 100 CALM      30.02R FOG
6HR MIN TEMP:  37; 6HR MAX TEMP:  46;

ASHLAND        FOG       40  38  93 CALM      30.04S VSB 3/4
6HR MIN TEMP:  37; 6HR MAX TEMP:  47;

HAYWARD        CLEAR     40  39  97 N5        30.04R
6HR MIN TEMP:  39; 6HR MAX TEMP:  46;

SIREN          CLEAR     40  39  97 CALM      30.02S FOG
CUMBERLAND     CLEAR     45  45 100 CALM      30.02S
RICE LAKE      CLEAR     45  45  99 CALM      30.05R
CHETEK         CLEAR     46  46 100 CALM      30.03R
LADYSMITH      CLEAR     50  49  97 CALM      30.05R
EAU CLAIRE     NOT AVBL
MENOMONIE      CLEAR     49  49  99 CALM      30.02S
6HR MIN TEMP:  49; 6HR MAX TEMP:  55;

NEW RICHMOND   NOT AVBL
OSCEOLA        CLEAR     42  42 100 CALM      30.03R
$$

WIZ003>005-009-010-017-018-211300-
NORTH CENTRAL WISCONSIN

CITY           SKY/WX    TMP DP  RH WIND       PRES   REMARKS
MANITOWISH WTR FOG       41  41 100 CALM      30.06R VSB 1/2
ARBOR VITAE    FOG       49  48  96 CALM      30.06R VSB 3/4
WOODRUFF       FOG       49  48  96 CALM      30.06R VSB 3/4
RHINELANDER    CLEAR     52  52 100 NE3       30.06S FOG
6HR MIN TEMP:  50; 6HR MAX TEMP:  62;

EAGLE RIVER    FOG       46  46 100 CALM      30.06R VSB<1/4
LAND O LAKES   CLEAR     44  44 100 CALM      30.09R FOG
6HR MIN TEMP:  44; 6HR MAX TEMP:  57;

PHILLIPS       PTCLDY    44  44 100 CALM      30.04R FOG
6HR MIN TEMP:  42; 6HR MAX TEMP:  52;

TOMAHAWK       FOG       46  46  97 CALM      30.05S VSB 1/2
MEDFORD        CLEAR     52  51  97 E3        30.02S
MERRILL        NOT AVBL
$$

WIZ029-030-035-036-043>047-211300-
CENTRAL WISCONSIN

CITY           SKY/WX    TMP DP  RH WIND       PRES   REMARKS
WAUSAU         CLEAR     58  57  97 CALM      30.03R
6HR MIN TEMP:  56; 6HR MAX TEMP:  63;

MOSINEE        MOCLDY    57  57 100 NE3       30.04R FOG
MARSHFIELD     CLEAR     58  55  90 NE7       30.02R
6HR MIN TEMP:  58; 6HR MAX TEMP:  62;

STEVENS POINT  FOG       62  62 100 NE3       30.03R VSB 1
WAUPACA        CLOUDY    68  68  98 CALM      30.01R FOG
WAUTOMA        FOG       67  67 100 NE5       30.01R VSB 1/2
6HR MIN TEMP:  67; 6HR MAX TEMP:  69;

WISC RAPIDS    CLOUDY    63  62  97 E6        30.02R FOG
6HR MIN TEMP:  60; 6HR MAX TEMP:  65;

CAMP DOUGLAS   NOT AVBL
$$

WIZ011>013-019>022-031-037>040-048>050-211300-
NORTHEAST WISCONSIN

CITY           SKY/WX    TMP DP  RH WIND       PRES   REMARKS
ANTIGO         MOCLDY    57  57 100 NE7       30.04R
SHAWANO        CLOUDY    67  64  93 NE8       30.02R
6HR MIN TEMP:  65; 6HR MAX TEMP:  69;

OCONTO         CLOUDY    67  64  91 N7        30.00R
STURGEON BAY   MOCLDY    65  64  97 N7        30.01R FOG
6HR MIN TEMP:  65; 6HR MAX TEMP:  70;

GREEN BAY      CLOUDY    68  68 100 NE5       30.02R
6HR MIN TEMP:  64; 6HR MAX TEMP:  68;

MANITOWOC      CLOUDY    67  66  97 NW3       30.01S
6HR MIN TEMP:  67; 6HR MAX TEMP:  72;

APPLETON       FOG       66  66 100 NE7       30.00R VSB 1/2
CLINTONVILLE   NOT AVBL
OSHKOSH        CLOUDY    68  67  96 NE3       30.00R
6HR MIN TEMP:  66; 6HR MAX TEMP:  69;

$$

WIZ032>034-041-042-053>061-211300-
SOUTHWEST WISCONSIN

CITY           SKY/WX    TMP DP  RH WIND       PRES   REMARKS
LA CROSSE      PTCLDY    57  57 100 NE3       30.00R
SPARTA         CLOUDY    52  52 100 CALM      30.01R FOG
VIROQUA        CLOUDY    62  62 100 E5        30.01R
BOSCOBEL       FOG       67  65  93 N3        29.97S VSB 3/4
6HR MIN TEMP:  67; 6HR MAX TEMP:  72;

PRAIRIE DU CHI CLOUDY    66  65  95 CALM      29.96S FOG
PLATTEVILLE    CLOUDY    66  66 100 CALM      29.98F
$$

WIZ056-057-062-063-064-067-068-211300-
SOUTH CENTRAL WISCONSIN

CITY           SKY/WX    TMP DP  RH WIND       PRES   REMARKS
REEDSBURG      CLOUDY    66  66 100 CALM      29.99R
BARABOO/DELLS  CLOUDY    67  65  96 NW3       29.99R FOG
LONE ROCK      CLOUDY    69  69 100 N3        29.97R FOG
6HR MIN TEMP:  68; 6HR MAX TEMP:  72;

MINERAL POINT  CLOUDY    68  68 100 CALM      29.98S FOG
MADISON        CLOUDY    68  67  96 CALM      29.98R FOG
6HR MIN TEMP:  68; 6HR MAX TEMP:  73; 6HR PCP: TRACE;

MIDDLETON      CLOUDY    69  69 100 NW3       29.97S
WATERTOWN      MOCLDY    67  67 100 CALM      29.97R
MONROE         CLOUDY    68  63  83 W5        29.97R
JANESVILLE     MOCLDY    70  70 100 CALM      29.97S
$$

WIZ051-052-058>065-066-070>072-211300-
SOUTHEAST WISCONSIN

CITY           SKY/WX    TMP DP  RH WIND       PRES   REMARKS
MILWAUKEE      CLOUDY    73  67  81 W3        29.97S
6HR MIN TEMP:  70; 6HR MAX TEMP:  73;

WAUKESHA       PTCLDY    66  64  94 CALM      29.99S
MILWAUKEE/TIMM CLOUDY    68  63  83 CALM      29.98S
RACINE         CLOUDY    68  66  93 CALM      29.99R
6HR MIN TEMP:  67; 6HR MAX TEMP:  71;

BURLINGTON     CLOUDY    65  65 100 N3        29.99R FOG
KENOSHA        MOCLDY    68  65  90 S3        29.97S
6HR MIN TEMP:  66; 6HR MAX TEMP:  75;

FOND DU LAC    CLOUDY    68  65  90 CALM      30.01R
6HR MIN TEMP:  68; 6HR MAX TEMP:  70; 6HR PCP:  0.17;

SHEBOYGAN      FOG       64  64 100 CALM      30.00S VSB 1/4
6HR MIN TEMP:  63; 6HR MAX TEMP:  71; 6HR PCP: TRACE;

WEST BEND        N/A     66  66 100 CALM      29.99S
JUNEAU         CLOUDY    66  66  98 N3        30.00S
$$

LSZ147-162-211300-
LAKE SUPERIOR

STATION/POSITION TIME  TEMP    WIND        PRES    WAVE
                       AIR SEA DIR/SP/G            HT/PER
                 (UTC) (F)     (DEG/KT/KT) (MB)    (FT/S)
W MID LAKE BUOY  1050   55 54   10/  2/  2 1017.0R   1
DEVILS ISLAND    1100   58      CALM  /  1 1017.1R
PORT WING        1140          110/  4/  7 1016.6F
SAXON HARBOR     1140   48     180/  6/  9 1016.6S
$$

LMZ867-665-643>646-211300-
LAKE MICHIGAN

STATION/POSITION TIME  TEMP    WIND        PRES    WAVE
                       AIR SEA DIR/SP/G            HT/PER
                 (UTC) (F)     (DEG/KT/KT) (MB)    (FT/S)
S GREEN BAY BUOY 1130   68 66   30/ 14/ 16 1015.5R
N MID LAKE BUOY  1050   66 65   50/  6/  8 1015.8R   3/ 6
NORTHPORT PIER   1140   67     360/  7/  9 1015.6S
KEWAUNEE LAKESHO 1130   64     290/  3/  4 1014.8R
SHEBOYGAN LAKESH 1100   68      90/  4/  4 1015.3R
PORT WASHINGTON  1130   69     360/  4/  8 1015.6F
ATWATER BUOY     1009   69 67  170/  2/  2 1014.4R
MILWAUKEE LAKESH 1130   73     230/  6/  7   N/A
S MID LAKE BUOY  1050   71 69  200/  8/ 10 1014.7R   1/ 3
KENOSHA   LAKESH 1100   71     340/  3/  4 1014.6
$$

TC  - TEMPERATURE IN CELSIUS
VSB - VISIBILITY IN STATUTE MILES
WCI - WIND CHILL INDEX
HX  - HEAT INDEX





USA.gov is the U.S. government's official web portal to all federal, state and local government web resources and services.